Location: *
(43.7000°S, 168.7000°W)
Time: 02:58:14
(UTC+00:00)

Meteor 1-16 Rocket - Pass Details

Date: 07 July 2020
Orbit: 790 x 907 km, 81.2° (Epoch: 10 August)

Event Time Altitude Azimuth Distance (km) Brightness Sun altitude
Rises 18:10:02 0° 195° (SSW) 3,564 7.1 -6.8°
Reaches altitude 10° 18:12:34 10° 198° (SSW) 2,607 6.4 -6.4°
Maximum altitude 18:18:23 57° 275° (W) 1,045 4.5 -5.5°
Drops below altitude 10° 18:23:59 10° 352° (N) 2,512 6.9 -4.6°
Sets 18:26:24 0° 355° (N) 3,423 7.7 -4.2°
